This is the latest recevied weather packets stored in our database for station/object KQ4DLB-13. If no packets are shown the sender has not sent any weather packets the latest 10 day(s).
| Time | Temp. | Humidity | Pressure | Rain* | Wind** | Luminosity | Snow |
|---|---|---|---|---|---|---|---|
| 1777659603 | 17.78° C | 50% | 991.4 hPa | 0 mm | - | 647 W/m² | - |
| 1777659302 | 17.78° C | 49% | 991.4 hPa | 0 mm | - | 710 W/m² | - |
| 1777659002 | 17.78° C | 49% | 991.3 hPa | 0 mm | - | 689 W/m² | - |
| 1777658702 | 17.78° C | 51% | 991.4 hPa | 0 mm | - | 704 W/m² | - |
| 1777658402 | 17.78° C | 50% | 991.4 hPa | 0 mm | - | 734 W/m² | - |
| 1777658102 | 17.78° C | 50% | 991.4 hPa | 0 mm | - | 794 W/m² | - |
| 1777657802 | 17.78° C | 49% | 991.6 hPa | 0 mm | - | 812 W/m² | - |
| 1777657502 | 17.78° C | 49% | 991.6 hPa | 0 mm | - | 859 W/m² | - |
| 1777657202 | 17.78° C | 50% | 991.6 hPa | 0 mm | - | 791 W/m² | - |
| 1777656902 | 17.78° C | 50% | 991.7 hPa | 0 mm | - | 736 W/m² | - |
| 1777656602 | 17.22° C | 50% | 991.8 hPa | 0 mm | - | 754 W/m² | - |
| 1777656302 | 17.22° C | 49% | 991.9 hPa | 0 mm | - | 806 W/m² | - |
| 1777656002 | 17.22° C | 52% | 991.9 hPa | 0 mm | - | 742 W/m² | - |
| 1777655702 | 17.22° C | 52% | 991.8 hPa | 0 mm | - | 634 W/m² | - |
| 1777655402 | 17.22° C | 54% | 991.8 hPa | 0 mm | - | 603 W/m² | - |
| 1777655102 | 17.22° C | 54% | 991.8 hPa | 0 mm | - | 638 W/m² | - |
| 1777654802 | 17.22° C | 54% | 991.8 hPa | 0 mm | - | 645 W/m² | - |
| 1777654502 | 17.22° C | 54% | 991.8 hPa | 0 mm | - | 632 W/m² | - |
| 1777654202 | 17.22° C | 56% | 991.9 hPa | 0 mm | - | 536 W/m² | - |
| 1777653902 | 17.22° C | 55% | 991.9 hPa | 0 mm | - | 343 W/m² | - |
| 1777653602 | 17.22° C | 56% | 991.7 hPa | 0 mm | - | 234 W/m² | - |
| 1777653302 | 17.22° C | 58% | 991.6 hPa | 0 mm | - | 220 W/m² | - |
| 1777653003 | 17.22° C | 58% | 991.6 hPa | 0 mm | - | 181 W/m² | - |
| 1777652702 | 16.67° C | 62% | 991.5 hPa | 0 mm | - | 189 W/m² | - |
| 1777652403 | 16.67° C | 60% | 991.6 hPa | 0 mm | - | 249 W/m² | - |
* Rain latest hour (hover to see other rain measurements)
** Current wind speed in m/s (hover to see current wind gust speed)